#timestamp,LO_Frequency,Hit,StdDev 
1511276415.5,286046999.3,N
1511276435.3,286046998.9,N
1511276455.1,286047001.7,N
1511276475.9,286047002.1,N
1511276495.7,286047004.1,N
1511276515.5,286047005.5,N
1511276535.4,286047002.0,N
1511276555.2,286047001.8,N
1511276575.0,286047002.3,N
1511276575.9,286047002.3,N
1511276595.8,286047005.0,N
1511276615.6,286047007.4,N
1511276635.4,286047003.2,N
1511276655.3,286046998.7,N
1511276675.1,286046994.5,N
1511276676.0,286046994.5,N
1511276695.8,286046994.8,N
1511276715.6,286046991.8,N
1511276735.5,286046993.3,N
1511276755.3,286046988.5,N
1511276775.1,286046992.9,N
1511276795.9,286046990.7,N
1511276815.7,286046992.6,N
1511276835.5,286046992.8,N
1511276855.4,286046993.9,N
1511276875.2,286046996.3,N
1511276895.0,286046992.5,N
1511276895.9,286046992.5,N
1511276915.8,286046991.4,N
1511276935.6,286046986.5,N
1511276955.4,286046983.9,N
1511276975.3,286046986.3,N
1511276995.1,286046987.7,N
1511276996.0,286046987.7,N
1511277015.8,286046987.3,N
1511277035.6,286046987.8,N
1511277055.5,286046988.9,N
1511277075.3,286046992.4,N
1511277095.1,286046991.2,N
1511277115.9,286046987.3,N
1511277135.7,286046992.6,N
1511277155.5,286046994.2,N
1511277175.4,286046990.0,N
1511277195.2,286046987.0,Y
1511277215.0,286046998.5,P
1511277215.9,286046998.5,N
1511277235.8,286047002.1,N
1511277255.6,286047003.0,N
1511277275.4,286047005.6,N
1511277295.3,286047004.5,N
1511277315.1,286047009.1,N
1511277316.0,286047009.1,N
1511277335.8,286047007.8,N
1511277355.7,286047010.7,N
1511277375.5,286047010.2,N
1511277395.3,286047007.9,N
1511277415.2,286047006.6,N
1511277435.9,286047007.3,N
1511277455.7,286047001.4,N
1511277475.5,286047003.1,N
1511277495.4,286047005.0,N
1511277515.2,286047006.9,N
1511277535.0,286047007.3,N
1511277535.9,286047007.3,N
1511277555.8,286047007.0,N
1511277575.6,286047010.8,N
1511277595.4,286047006.7,N
1511277615.3,286047010.3,N
1511277635.1,286047013.5,Y
1511277655.8,286047004.7,P
1511277675.7,286047004.7,P
1511277695.5,286047004.3,P
1511277715.3,286047000.7,N
1511277735.2,286046995.0,N
1511277755.9,286046996.1,N
1511277775.7,286046994.1,N
1511277795.6,286046990.3,N
1511277815.4,286046992.1,N
1511277835.2,286046993.3,N
1511277855.0,286046997.3,N
1511277856.0,286046997.3,N
1511277875.8,286046996.6,N
1511277895.6,286047001.5,N
1511277915.4,286047006.0,N
1511277935.3,286047003.4,N
1511277955.1,286046998.9,N
1511277975.8,286046996.8,N
1511277995.7,286046991.9,N
1511278015.5,286046988.8,N
1511278035.3,286046992.9,N
1511278055.2,286046993.5,N
1511278075.9,286046997.8,N
1511278095.7,286046997.7,N
1511278115.6,286047001.1,N
1511278135.4,286046999.3,N
1511278155.2,286046996.4,N
1511278175.0,286046996.8,N
1511278176.0,286046996.8,N
1511278195.8,286046998.9,N
1511278215.6,286046997.4,N
1511278235.4,286046991.7,N
1511278255.3,286046995.0,N
1511278275.1,286046993.2,N
1511278295.8,286046990.8,N
1511278315.7,286046989.3,N
1511278335.5,286046986.0,Y
1511278355.3,286046990.0,P
1511278375.2,286046987.8,P
1511278395.0,286046988.4,P
1511278395.9,286046988.4,Y
1511278415.7,286046999.7,P
1511278435.6,286047004.3,N
1511278455.4,286047003.5,N
1511278475.2,286047007.6,N
1511278495.1,286047009.0,N
1511278496.0,286047009.0,N
1511278515.8,286047008.5,N
1511278535.6,286047005.0,N
1511278555.5,286047004.7,N
1511278575.3,286047005.1,N
1511278595.1,286047003.6,N
1511278615.9,286047001.5,N
1511278635.7,286047003.9,N
1511278655.5,286047008.1,N
1511278675.4,286047012.2,N
1511278695.2,286047008.3,N
1511278715.0,286047005.8,N
1511278715.9,286047005.8,N
1511278735.8,286047008.9,N
1511278755.6,286047012.1,N
1511278775.4,286047009.9,N
1511278795.2,286047008.0,N
1511278815.1,286047006.0,N
1511278816.0,286047006.0,N
1511278835.8,286047003.0,N
1511278855.6,286047002.5,N
1511278875.5,286047001.2,N
1511278895.3,286047000.1,N
1511278915.1,286047000.3,N
1511278935.9,286047000.4,N
1511278955.7,286046999.6,N
1511278975.5,286046995.7,N
1511278995.4,286046995.6,N
1511279015.2,286046998.9,N
1511279035.0,286046999.1,N
1511279035.9,286046999.1,N
1511279055.8,286046999.0,N
1511279075.6,286046997.4,N
1511279095.4,286047001.3,N
1511279115.2,286047002.6,N
1511279135.1,286047000.6,N
1511279136.0,286047000.6,N
1511279155.8,286047002.5,N
1511279175.6,286047006.0,N
1511279195.5,286047003.9,N
1511279215.3,286047003.7,N
1511279235.1,286047004.1,N
1511279255.9,286047002.3,N
1511279275.7,286046998.5,N
1511279295.5,286046999.6,N
1511279315.4,286047000.5,N
1511279335.2,286046999.5,N
1511279355.0,286046996.3,N
1511279355.9,286046996.3,N
1511279375.8,286046995.1,N
1511279395.6,286046998.3,N
1511279415.4,286046997.2,N
1511279435.3,286046993.7,N
1511279455.1,286046990.1,Y
1511279456.0,286046990.1,P
1511279475.8,286046994.1,N
1511279495.7,286046997.0,N
1511279515.5,286047004.2,N
1511279535.3,286047008.9,N
1511279555.2,286047010.2,N
1511279575.9,286047009.5,N
1511279595.7,286047009.1,N
1511279615.5,286047005.2,N
1511279635.4,286047003.8,N
1511279655.2,286047002.6,N
1511279675.0,286046999.6,N
1511279675.9,286046999.6,N
1511279695.8,286046997.3,N
1511279715.6,286046997.4,N
1511279735.4,286046997.7,N
1511279755.3,286046999.4,N
1511279775.1,286047003.4,N
1511279776.0,286047003.4,N
1511279795.8,286047005.4,N
1511279815.7,286047003.7,N
1511279835.5,286047007.3,N
1511279855.3,286047008.9,N
1511279875.1,286047008.8,N
1511279895.9,286047011.0,N
1511279915.7,286047010.5,N
1511279935.5,286047008.0,N
1511279955.4,286047006.8,N
1511279975.2,286047007.8,N
1511279995.0,286047013.1,N
1511279995.9,286047013.1,N
